DW0707 Weather Reports


time (UTC)temp
C
wind
direction
speed
KPH
gust
KPH
rain 1hr
cm
rain 24hr
cm
rain mn
cm
humidity
%
barometer
mb
20260506193354 12 250 9.7 19.3 0.00 0.00 0.00 86 1020.3
20260506192343 11 225 8.0 17.7 0.00 0.00 0.00 87 1020.3
20260506191836 11 275 6.4 16.1 0.00 0.00 0.00 87 1020.2
20260506191331 11 269 8.0 16.1 0.00 0.00 0.00 88 1020.2
20260506190824 11 246 9.7 17.7 0.00 0.00 0.00 87 1020.2
20260506190319 11 205 8.0 17.7 0.00 0.00 0.00 88 1020.1
20260506185813 11 232 6.4 14.5 0.00 0.00 0.00 88 1020.1
20260506184800 11 256 6.4 14.5 0.00 0.00 0.00 88 1020.0
20260506184255 11 240 6.4 14.5 0.00 0.00 0.00 88 1020.0
20260506183748 11 253 6.4 12.9 0.00 0.00 0.00 88 1020.0
20260506183243 11 219 4.8 11.3 0.00 0.00 0.00 88 1020.0
20260506182736 11 242 4.8 11.3 0.00 0.00 0.00 87 1020.0
20260506182230 11 215 4.8 11.3 0.00 0.00 0.00 87 1019.8
20260506181725 11 257 4.8 11.3 0.00 0.00 0.00 87 1019.8
20260506181219 11 248 4.8 12.9 0.00 0.00 0.00 87 1019.8
20260506180712 11 253 4.8 14.5 0.00 0.00 0.00 87 1019.7
20260506180207 11 253 4.8 12.9 0.00 0.00 0.00 87 1019.8
20260506175701 11 252 3.2 12.9 0.00 0.00 0.00 87 1019.8
20260506175155 11 223 4.8 12.9 0.00 0.00 0.00 87 1019.9
20260506174649 11 244 6.4 14.5 0.00 0.00 0.00 87 1019.8
20260506174142 11 255 6.4 12.9 0.00 0.00 0.00 87 1019.8
20260506173637 11 273 6.4 12.9 0.00 0.00 0.00 86 1019.8
20260506172625 11 257 6.4 14.5 0.00 0.00 0.00 86 1019.9
20260506172118 11 256 4.8 12.9 0.00 0.00 0.00 86 1019.8
20260506171617 11 268 6.4 16.1 0.00 0.00 0.00 85 1019.7
20260506171117 11 271 4.8 16.1 0.00 0.00 0.00 85 1019.7
20260506170617 11 298 8.0 16.1 0.00 0.00 0.00 85 1019.6
20260506170122 11 257 8.0 16.1 0.00 0.00 0.00 84 1019.5
20260506165617 11 235 4.8 14.5 0.00 0.00 0.00 84 1019.5
20260506165117 11 240 4.8 12.9 0.00 0.00 0.00 83 1019.5
20260506164617 11 250 4.8 12.9 0.00 0.00 0.00 83 1019.5
20260506164117 11 254 4.8 12.9 0.00 0.00 0.00 83 1019.4
20260506163616 11 272 4.8 14.5 0.00 0.00 0.00 83 1019.3
20260506163116 11 246 3.2 14.5 0.00 0.00 0.00 83 1019.3
20260506162115 11 246 3.2 11.3 0.00 0.00 0.00 83 1019.4
20260506161615 11 244 1.6 6.4 0.00 0.00 0.00 83 1019.3
20260506161113 11 247 3.2 11.3 0.00 0.00 0.00 82 1019.3
20260506160116 11 206 3.2 8.0 0.00 0.00 0.00 82 1019.3
20260506155616 11 250 3.2 8.0 0.00 0.00 0.00 82 1019.3
20260506153610 11 240 4.8 16.1 0.00 0.00 0.00 81 1019.2
20260506152610 11 271 3.2 11.3 0.00 0.00 0.00 81 1019.2
20260506152108 11 233 3.2 9.7 0.00 0.00 0.00 81 1019.1
20260506151609 11 270 3.2 9.7 0.00 0.00 0.00 81 1019.1
20260506151109 11 273 4.8 8.0 0.00 0.00 0.00 81 1019.0
20260506150608 11 230 3.2 8.0 0.00 0.00 0.00 81 1019.0
20260506145609 11 15 3.2 11.3 0.00 0.00 0.00 81 1018.9
20260506145108 11 261 3.2 11.3 0.00 0.00 0.00 81 1018.9
20260506144608 11 246 1.6 11.3 0.00 0.00 0.00 81 1018.7
20260506144108 11 269 0.0 11.3 0.00 0.00 0.00 81 1018.7
20260506143608 11 269 1.6 11.3 0.00 0.00 0.00 81 1018.6
20260506143108 11 269 1.6 14.5 0.00 0.00 0.00 81 1018.6
20260506142605 11 246 1.6 14.5 0.00 0.00 0.00 81 1018.5
20260506141554 11 245 1.6 6.4 0.00 0.00 0.00 81 1018.4
20260506141048 11 245 1.6 6.4 0.00 0.00 0.00 81 1018.4
20260506140036 11 208 1.6 9.7 0.00 0.00 0.00 81 1018.4
20260506135529 11 249 3.2 9.7 0.00 0.00 0.00 81 1018.4
20260506135028 11 270 3.2 11.3 0.00 0.00 0.00 81 1018.4
20260506134529 11 259 3.2 11.3 0.00 0.00 0.00 81 1018.2
20260506134026 11 250 4.8 11.3 0.00 0.00 0.00 81 1018.2
20260506133527 11 243 3.2 11.3 0.00 0.00 0.00 81 1018.2
20260506133025 11 267 1.6 11.3 0.00 0.00 0.00 81 1017.9
20260506132525 11 266 0.0 6.4 0.00 0.00 0.00 81 1017.8
20260506131530 11 247 0.0 4.8 0.00 0.00 0.00 81 1018.0
20260506125516 11 254 0.0 4.8 0.00 0.00 0.00 81 1017.7
20260506125015 11 254 1.6 11.3 0.00 0.00 0.00 81 1017.7
20260506124510 11 254 3.2 11.3 0.00 0.00 0.00 81 1017.9
20260506123009 11 240 1.6 4.8 0.00 0.00 0.00 81 1017.9
20260506122509 11 240 1.6 4.8 0.00 0.00 0.00 81 1017.9
20260506122007 11 281 1.6 4.8 0.00 0.00 0.00 81 1017.7
20260506120458 11 246 4.8 12.9 0.00 0.00 0.00 81 1017.8
20260506115446 11 268 4.8 11.3 0.00 0.00 0.00 81 1017.8
20260506114939 11 230 4.8 11.3 0.00 0.00 0.00 81 1017.6
20260506114433 11 259 4.8 11.3 0.00 0.00 0.00 81 1017.5
20260506113927 11 263 4.8 11.3 0.00 0.00 0.00 81 1017.4
20260506113422 11 273 3.2 11.3 0.00 0.00 0.00 81 1017.5
20260506112915 11 231 3.2 11.3 0.00 0.00 0.00 81 1017.5
20260506112409 11 245 4.8 11.3 0.00 0.00 0.00 81 1017.6
20260506111903 11 291 3.2 9.7 0.00 0.00 0.00 81 1017.6
20260506111357 11 289 3.2 11.3 0.00 0.00 0.00 81 1017.6
20260506110852 11 269 4.8 11.3 0.00 0.00 0.00 81 1017.6
20260506110345 11 273 3.2 9.7 0.00 0.00 0.00 81 1017.5
20260506105840 11 247 3.2 9.7 0.00 0.00 0.00 82 1017.5
20260506105333 11 290 3.2 11.3 0.00 0.00 0.00 82 1017.5
20260506104827 11 299 4.8 11.3 0.00 0.00 0.00 82 1017.6
20260506104321 11 281 4.8 11.3 0.00 0.00 0.00 82 1017.4
20260506103309 11 256 3.2 9.7 0.00 0.00 0.00 82 1017.3
20260506102803 11 270 3.2 9.7 0.00 0.00 0.00 82 1017.3
20260506102257 11 248 1.6 6.4 0.00 0.00 0.00 82 1017.3
20260506101751 11 248 3.2 6.4 0.00 0.00 0.00 82 1017.2
20260506101246 11 248 3.2 8.0 0.00 0.00 0.00 82 1017.2
20260506100233 11 261 3.2 6.4 0.00 0.00 0.00 83 1017.1
20260506095727 11 284 3.2 6.4 0.00 0.00 0.00 83 1017.0
20260506095221 11 291 1.6 4.8 0.00 0.00 0.00 83 1017.1
20260506094716 11 291 3.2 6.4 0.00 0.00 0.00 83 1017.1
20260506093704 11 243 4.8 12.9 0.00 0.00 0.00 83 1017.2
20260506092652 11 269 4.8 12.9 0.00 0.00 0.00 83 1017.1
20260506091640 11 286 4.8 12.9 0.00 0.00 0.00 83 1017.0
20260506091133 11 253 4.8 9.7 0.00 0.00 0.00 83 1017.0
20260506090627 11 250 4.8 9.7 0.00 0.00 0.00 83 1017.0
20260506085616 12 244 3.2 8.0 0.00 0.00 0.00 83 1016.9
20260506085109 12 229 3.2 12.9 0.00 0.00 0.00 83 1016.9
20260506082559 12 250 4.8 14.5 0.00 0.00 0.00 82 1016.8
20260506082059 12 237 3.2 9.7 0.00 0.00 0.00 82 1016.7
20260506081059 12 245 4.8 12.9 0.00 0.00 0.00 82 1016.8
20260506073054 12 242 1.6 9.7 0.00 0.00 0.00 82 1016.3
20260506072550 12 218 1.6 9.7 0.00 0.00 0.00 81 1016.3
20260506071048 12 243 3.2 11.3 0.00 0.00 0.00 81 1016.3
20260506070548 12 273 3.2 11.3 0.00 0.00 0.00 81 1016.2
20260506050525 12 250 4.8 12.9 0.00 0.00 0.00 80 1016.1
20260506045025 12 237 4.8 12.9 0.00 0.00 0.00 80 1016.0
20260506044524 12 265 4.8 12.9 0.00 0.00 0.00 80 1016.1
20260506044025 12 270 4.8 9.7 0.00 0.00 0.00 80 1016.0
20260506043524 12 279 3.2 8.0 0.00 0.00 0.00 80 1016.0
20260506042524 12 259 6.4 14.5 0.00 0.00 0.00 80 1015.9
20260506041525 12 256 3.2 8.0 0.00 0.00 0.00 80 1015.7
20260506041025 12 249 3.2 8.0 0.00 0.00 0.00 80 1015.6
20260506040525 12 255 1.6 4.8 0.00 0.00 0.00 80 1015.5
20260506040024 12 245 1.6 16.1 0.00 0.00 0.00 80 1015.5
20260506035524 12 245 4.8 16.1 0.00 0.00 0.00 80 1015.4
20260506035022 12 244 6.4 16.1 0.00 0.00 0.00 80 1015.4
20260506034522 12 257 4.8 16.1 0.00 0.00 0.00 80 1015.4
20260506034016 12 247 3.2 12.9 0.00 0.00 0.00 80 1015.2
20260506033513 12 292 3.2 12.9 0.00 0.00 0.00 80 1015.1
20260506033012 12 246 4.8 12.9 0.00 0.00 0.00 80 1015.2
20260506032518 12 233 4.8 12.9 0.00 0.00 0.00 79 1015.2
20260506032018 12 268 3.2 11.3 0.00 0.00 0.00 79 1015.2
20260506031512 12 275 4.8 11.3 0.00 0.00 0.00 79 1015.2
20260506031013 13 267 4.8 11.3 0.00 0.00 0.00 79 1015.2
20260506030512 13 222 4.8 12.9 0.00 0.00 0.00 79 1015.2
20260506030012 13 267 4.8 12.9 0.00 0.00 0.00 78 1015.3
20260506025512 13 245 4.8 12.9 0.00 0.00 0.00 78 1015.3
20260506025012 13 255 4.8 12.9 0.00 0.00 0.00 78 1015.2
20260506024006 13 299 3.2 12.9 0.00 0.00 0.00 79 1015.0
20260506023506 13 287 3.2 12.9 0.00 0.00 0.00 79 1015.1
20260506023007 13 267 3.2 12.9 0.00 0.00 0.00 79 1015.1
20260506022507 13 240 3.2 6.4 0.00 0.00 0.00 78 1015.0
20260506022010 13 238 3.2 6.4 0.00 0.00 0.00 78 1015.0
20260506021508 13 271 3.2 14.5 0.00 0.00 0.00 79 1015.0
20260506020502 13 246 4.8 11.3 0.00 0.00 0.00 79 1015.1
20260506015955 13 240 3.2 11.3 0.00 0.00 0.00 79 1015.2
20260506014943 13 245 4.8 12.9 0.00 0.00 0.00 78 1015.1
20260506014438 13 246 4.8 12.9 0.00 0.00 0.00 78 1015.0
20260506013931 13 263 6.4 12.9 0.00 0.00 0.00 79 1015.1
20260506013425 13 230 4.8 12.9 0.00 0.00 0.00 79 1015.1
20260506012414 13 251 3.2 14.5 0.00 0.00 0.00 79 1015.1
20260506011907 13 257 3.2 11.3 0.00 0.00 0.00 79 1015.1
20260506010855 13 269 4.8 16.1 0.00 0.00 0.00 79 1015.2
20260506010350 13 294 4.8 16.1 0.00 0.00 0.00 79 1015.1
20260506005844 14 283 4.8 11.3 0.00 0.00 0.00 79 1015.1
20260506005337 14 273 3.2 11.3 0.00 0.00 0.00 79 1015.1
20260506004831 14 237 4.8 12.9 0.00 0.00 0.00 79 1015.1
20260506003819 13 279 4.8 12.9 0.00 0.00 0.00 79 1015.1
20260506003313 13 273 6.4 12.9 0.00 0.00 0.00 78 1015.2
20260506002302 14 227 4.8 11.3 0.00 0.00 0.00 79 1015.1
20260506001755 14 236 4.8 11.3 0.00 0.00 0.00 79 1015.2
20260506000743 14 246 4.8 12.9 0.00 0.00 0.00 78 1015.2
20260506000240 14 229 6.4 12.9 0.00 0.00 0.00 78 1015.3
20260505235731 14 232 6.4 14.5 0.00 0.00 0.00 77 1015.2
20260505235225 14 232 4.8 14.5 0.00 0.00 0.00 78 1015.2
20260505234719 14 243 6.4 14.5 0.00 0.00 0.00 78 1015.2
20260505234213 14 246 6.4 14.5 0.00 0.00 0.00 78 1015.3
20260505233707 14 292 6.4 14.5 0.00 0.00 0.00 78 1015.4
20260505233201 14 260 4.8 11.3 0.00 0.00 0.00 78 1015.4
20260505232655 14 222 4.8 11.3 0.00 0.00 0.00 79 1015.4
20260505231644 14 242 9.7 17.7 0.00 0.00 0.00 77 1015.5
20260505231138 14 283 9.7 16.1 0.00 0.00 0.00 78 1015.5
20260505230631 14 246 8.0 14.5 0.00 0.00 0.00 77 1015.5
20260505225625 14 236 4.8 12.9 0.00 0.00 0.00 78 1015.6
20260505225113 14 287 6.4 12.9 0.00 0.00 0.00 78 1015.6
20260505224607 14 269 6.4 16.1 0.00 0.00 0.00 77 1015.6
20260505224101 14 294 8.0 16.1 0.00 0.00 0.00 77 1015.6
20260505223555 14 262 8.0 16.1 0.00 0.00 0.00 77 1015.7
20260505223050 14 259 8.0 16.1 0.00 0.00 0.00 77 1015.7
20260505222543 14 292 9.7 16.1 0.00 0.00 0.00 77 1015.7
20260505222038 15 252 8.0 14.5 0.00 0.00 0.00 77 1015.7
20260505221531 15 258 6.4 14.5 0.00 0.00 0.00 77 1015.8
20260505221025 15 263 4.8 14.5 0.00 0.00 0.00 77 1015.8
20260505220519 15 250 6.4 14.5 0.00 0.00 0.00 77 1015.8
20260505220013 14 279 8.0 17.7 0.00 0.00 0.00 77 1015.9
20260505215507 15 244 8.0 16.1 0.00 0.00 0.00 76 1015.8
20260505215001 15 209 6.4 19.3 0.00 0.00 0.00 77 1015.8
20260505214450 15 265 8.0 19.3 0.00 0.00 0.00 77 1015.7
20260505213950 15 220 9.7 19.3 0.00 0.00 0.00 77 1015.9
20260505213450 14 218 11.3 20.9 0.00 0.00 0.00 76 1015.8
20260505212451 15 257 8.0 17.7 0.00 0.00 0.00 77 1015.9
20260505211450 15 309 9.7 19.3 0.00 0.00 0.00 75 1015.8
20260505210950 15 288 6.4 19.3 0.00 0.00 0.00 76 1015.8
20260505205948 15 283 9.7 17.7 0.00 0.00 0.00 78 1015.8
20260505205448 15 259 8.0 17.7 0.00 0.00 0.00 77 1015.8
20260505204948 15 350 9.7 17.7 0.00 0.00 0.00 78 1015.9
20260505203943 15 271 9.7 17.7 0.00 0.00 0.00 77 1016.0
20260505202944 15 225 8.0 19.3 0.00 0.00 0.00 77 1015.9
20260505202444 14 252 8.0 19.3 0.00 0.00 0.00 77 1015.9
20260505201944 14 290 8.0 16.1 0.00 0.00 0.00 77 1015.9
20260505201444 14 292 8.0 16.1 0.00 0.00 0.00 77 1015.8
20260505195944 14 240 8.0 14.5 0.00 0.00 0.00 77 1015.9
20260505195443 14 251 8.0 16.1 0.00 0.00 0.00 77 1015.8
20260505194943 14 244 8.0 17.7 0.00 0.00 0.00 76 1015.7
20260505194443 15 224 6.4 17.7 0.00 0.00 0.00 76 1015.7
20260505193944 15 271 4.8 16.1 0.00 0.00 0.00 76 1015.7